Time,TemperatureF,DewpointF,PressureIn,WindDirection,WindDirectionDegrees,WindSpeedMPH,WindSpeedGustMPH,Humidity,HourlyPrecipIn,Conditions,Clouds,dailyrainin,SoftwareType,DateUTC
2013-11-17 00:05:00,79.2,79.2,29.93,ENE,68,6.0,6.0,100,0.00,,,0.00,Wunderground v.1.15,2013-11-17 05:05:00,
2013-11-17 00:10:00,79.4,79.4,29.93,East,96,6.0,6.0,100,0.00,,,0.00,Wunderground v.1.15,2013-11-17 05:10:00,
2013-11-17 00:15:00,79.2,79.2,29.93,ENE,75,6.0,6.0,100,0.00,,,0.00,Wunderground v.1.15,2013-11-17 05:15:00,
2013-11-17 00:25:00,79.2,79.2,29.93,East,85,8.0,10.0,100,0.00,,,0.00,Wunderground v.1.15,2013-11-17 05:25:00,
2013-11-17 00:30:00,79.2,79.2,29.93,East,79,7.0,7.0,100,0.00,,,0.00,Wunderground v.1.15,2013-11-17 05:30:00,
2013-11-17 00:35:00,79.0,79.0,29.93,East,79,6.0,12.0,100,0.00,,,0.00,Wunderground v.1.15,2013-11-17 05:35:00,
2013-11-17 00:40:00,79.0,79.0,29.93,ESE,103,6.0,6.0,100,0.00,,,0.00,Wunderground v.1.15,2013-11-17 05:40:00,
2013-11-17 00:50:00,78.8,78.8,29.92,ENE,59,7.0,8.0,100,0.00,,,0.00,Wunderground v.1.15,2013-11-17 05:50:00,
2013-11-17 00:55:00,79.0,79.0,29.92,NE,54,6.0,8.0,100,0.00,,,0.00,Wunderground v.1.15,2013-11-17 05:55:00,
2013-11-17 01:05:00,79.0,79.0,29.92,ENE,65,7.0,7.0,100,0.00,,,0.00,Wunderground v.1.15,2013-11-17 06:05:00,
2013-11-17 01:10:00,79.0,79.0,29.92,ENE,66,8.0,10.0,100,0.00,,,0.00,Wunderground v.1.15,2013-11-17 06:10:00,
2013-11-17 01:20:00,79.2,79.2,29.92,ENE,58,7.0,7.0,100,0.00,,,0.00,Wunderground v.1.15,2013-11-17 06:20:00,
2013-11-17 01:30:00,78.8,78.8,29.92,ENE,76,7.0,13.0,100,0.00,,,0.00,Wunderground v.1.15,2013-11-17 06:30:00,
2013-11-17 01:35:00,78.8,78.8,29.92,ENE,72,7.0,13.0,100,0.00,,,0.00,Wunderground v.1.15,2013-11-17 06:35:00,
2013-11-17 01:45:00,78.8,78.8,29.92,East,80,7.0,7.0,100,0.00,,,0.00,Wunderground v.1.15,2013-11-17 06:45:00,
2013-11-17 01:55:00,79.0,79.0,29.92,ENE,65,7.0,7.0,100,0.00,,,0.00,Wunderground v.1.15,2013-11-17 06:55:00,
2013-11-17 02:05:00,78.6,78.6,29.91,ENE,73,6.0,7.0,100,0.00,,,0.00,Wunderground v.1.15,2013-11-17 07:05:00,
2013-11-17 02:15:00,78.8,78.8,29.91,East,79,7.0,7.0,100,0.00,,,0.00,Wunderground v.1.15,2013-11-17 07:15:00,
2013-11-17 02:20:00,78.6,78.6,29.91,ENE,71,6.0,6.0,100,0.00,,,0.00,Wunderground v.1.15,2013-11-17 07:20:00,
2013-11-17 02:30:00,78.6,78.6,29.91,East,79,7.0,7.0,100,0.00,,,0.00,Wunderground v.1.15,2013-11-17 07:30:00,
2013-11-17 02:40:00,78.6,78.6,29.91,East,79,7.0,7.0,100,0.00,,,0.00,Wunderground v.1.15,2013-11-17 07:40:00,
2013-11-17 02:45:00,78.6,78.6,29.91,ESE,107,7.0,9.0,100,0.00,,,0.00,Wunderground v.1.15,2013-11-17 07:45:00,
2013-11-17 02:55:00,78.5,78.5,29.91,East,80,7.0,7.0,100,0.00,,,0.00,Wunderground v.1.15,2013-11-17 07:55:00,
2013-11-17 03:00:00,78.5,78.5,29.91,ESE,117,7.0,7.0,100,0.00,,,0.00,Wunderground v.1.15,2013-11-17 08:00:00,
2013-11-17 03:05:00,78.6,78.6,29.91,NE,54,7.0,11.0,100,0.00,,,0.00,Wunderground v.1.15,2013-11-17 08:05:00,
2013-11-17 03:15:00,78.5,78.5,29.90,ENE,76,7.0,9.0,100,0.00,,,0.00,Wunderground v.1.15,2013-11-17 08:15:00,
2013-11-17 03:20:00,78.5,78.5,29.90,East,79,6.0,6.0,100,0.00,,,0.00,Wunderground v.1.15,2013-11-17 08:20:00,
2013-11-17 03:30:00,78.6,78.6,29.91,ENE,78,7.0,7.0,100,0.00,,,0.00,Wunderground v.1.15,2013-11-17 08:30:00,
2013-11-17 03:40:00,78.6,78.6,29.91,ENE,66,6.0,7.0,100,0.00,,,0.00,Wunderground v.1.15,2013-11-17 08:40:00,
2013-11-17 03:45:00,78.5,78.5,29.90,ESE,110,6.0,7.0,100,0.00,,,0.00,Wunderground v.1.15,2013-11-17 08:45:00,
2013-11-17 03:55:00,78.5,78.5,29.90,ESE,119,6.0,7.0,100,0.00,,,0.00,Wunderground v.1.15,2013-11-17 08:55:00,
2013-11-17 04:00:00,78.5,78.5,29.90,East,82,6.0,8.0,100,0.00,,,0.00,Wunderground v.1.15,2013-11-17 09:00:00,
2013-11-17 04:10:00,78.5,78.5,29.90,ENE,72,7.0,13.0,100,0.00,,,0.00,Wunderground v.1.15,2013-11-17 09:10:00,
2013-11-17 04:15:00,78.5,78.5,29.90,East,82,7.0,13.0,100,0.00,,,0.00,Wunderground v.1.15,2013-11-17 09:15:00,
2013-11-17 04:25:00,78.5,78.5,29.90,East,80,6.0,7.0,100,0.00,,,0.00,Wunderground v.1.15,2013-11-17 09:25:00,
2013-11-17 04:35:00,78.3,78.3,29.90,ENE,61,5.0,6.0,100,0.00,,,0.00,Wunderground v.1.15,2013-11-17 09:35:00,
2013-11-17 04:45:00,78.5,78.5,29.90,East,80,5.0,10.0,100,0.00,,,0.00,Wunderground v.1.15,2013-11-17 09:45:00,
2013-11-17 04:55:00,78.3,78.3,29.90,East,88,7.0,10.0,100,0.00,,,0.00,Wunderground v.1.15,2013-11-17 09:55:00,
2013-11-17 05:05:00,78.5,78.5,29.90,East,90,7.0,8.0,100,0.00,,,0.00,Wunderground v.1.15,2013-11-17 10:05:00,
2013-11-17 05:10:00,78.5,78.5,29.90,ESE,120,7.0,7.0,100,0.00,,,0.00,Wunderground v.1.15,2013-11-17 10:10:00,
2013-11-17 05:20:00,78.3,78.3,29.90,ENE,62,5.0,5.0,100,0.00,,,0.00,Wunderground v.1.15,2013-11-17 10:20:00,
2013-11-17 05:25:00,78.5,78.5,29.90,ENE,78,6.0,6.0,100,0.00,,,0.00,Wunderground v.1.15,2013-11-17 10:25:00,
2013-11-17 05:35:00,78.5,78.5,29.90,ENE,65,7.0,8.0,100,0.00,,,0.00,Wunderground v.1.15,2013-11-17 10:35:00,
2013-11-17 05:40:00,78.5,78.5,29.90,East,83,6.0,6.0,100,0.00,,,0.00,Wunderground v.1.15,2013-11-17 10:40:00,
2013-11-17 05:50:00,78.5,78.5,29.91,ENE,73,7.0,8.0,100,0.00,,,0.00,Wunderground v.1.15,2013-11-17 10:50:00,
2013-11-17 05:55:00,78.5,78.5,29.91,East,97,7.0,8.0,100,0.00,,,0.00,Wunderground v.1.15,2013-11-17 10:55:00,
2013-11-17 06:05:00,78.3,78.3,29.91,ESE,112,6.0,8.0,100,0.00,,,0.00,Wunderground v.1.15,2013-11-17 11:05:00,
2013-11-17 06:10:00,78.3,78.3,29.91,ENE,71,6.0,7.0,100,0.00,,,0.00,Wunderground v.1.15,2013-11-17 11:10:00,
2013-11-17 06:20:00,78.3,78.3,29.92,NE,52,6.0,6.0,100,0.00,,,0.00,Wunderground v.1.15,2013-11-17 11:20:00,
2013-11-17 06:30:00,78.5,78.5,29.92,East,88,6.0,6.0,100,0.00,,,0.00,Wunderground v.1.15,2013-11-17 11:30:00,
2013-11-17 06:40:00,78.5,78.5,29.92,East,83,6.0,6.0,100,0.00,,,0.00,Wunderground v.1.15,2013-11-17 11:40:00,
2013-11-17 06:45:00,78.3,78.3,29.92,ENE,72,5.0,6.0,100,0.00,,,0.00,Wunderground v.1.15,2013-11-17 11:45:00,
2013-11-17 06:55:00,78.5,78.5,29.92,East,93,5.0,10.0,100,0.00,,,0.00,Wunderground v.1.15,2013-11-17 11:55:00,
2013-11-17 07:00:00,78.5,78.5,29.92,ESE,102,5.0,5.0,100,0.00,,,0.00,Wunderground v.1.15,2013-11-17 12:00:00,
2013-11-17 07:10:00,78.5,78.5,29.92,East,95,5.0,6.0,100,0.00,,,0.00,Wunderground v.1.15,2013-11-17 12:10:00,
2013-11-17 07:15:00,78.6,78.6,29.93,ESE,102,5.0,6.0,100,0.00,,,0.00,Wunderground v.1.15,2013-11-17 12:15:00,
2013-11-17 07:25:00,78.8,78.8,29.93,East,90,6.0,6.0,100,0.00,,,0.00,Wunderground v.1.15,2013-11-17 12:25:00,
2013-11-17 07:35:00,79.2,79.2,29.93,East,97,5.0,7.0,100,0.00,,,0.00,Wunderground v.1.15,2013-11-17 12:35:00,
2013-11-17 07:40:00,79.2,79.2,29.93,East,83,5.0,5.0,100,0.00,,,0.00,Wunderground v.1.15,2013-11-17 12:40:00,
2013-11-17 07:50:00,79.4,79.4,29.93,East,83,4.0,12.0,100,0.00,,,0.00,Wunderground v.1.15,2013-11-17 12:50:00,
2013-11-17 07:55:00,79.4,79.4,29.93,East,95,6.0,12.0,100,0.00,,,0.00,Wunderground v.1.15,2013-11-17 12:55:00,
2013-11-17 08:05:00,79.8,79.8,29.93,East,95,6.0,6.0,100,0.00,,,0.00,Wunderground v.1.15,2013-11-17 13:05:00,
2013-11-17 08:15:00,79.6,79.6,29.94,East,80,6.0,6.0,100,0.00,,,0.00,Wunderground v.1.15,2013-11-17 13:15:00,
2013-11-17 08:20:00,79.6,79.6,29.94,ESE,107,6.0,9.0,100,0.00,,,0.00,Wunderground v.1.15,2013-11-17 13:20:00,
2013-11-17 08:30:00,79.9,79.9,29.94,East,90,5.0,6.0,100,0.00,,,0.00,Wunderground v.1.15,2013-11-17 13:30:00,
2013-11-17 08:35:00,79.9,79.9,29.94,ENE,76,5.0,6.0,100,0.00,,,0.00,Wunderground v.1.15,2013-11-17 13:35:00,
2013-11-17 08:40:00,79.8,79.8,29.94,East,80,5.0,5.0,100,0.00,,,0.00,Wunderground v.1.15,2013-11-17 13:40:00,
2013-11-17 08:50:00,80.3,80.3,29.95,ENE,72,6.0,6.0,100,0.00,,,0.00,Wunderground v.1.15,2013-11-17 13:50:00,
2013-11-17 08:55:00,80.3,80.3,29.95,East,83,6.0,6.0,100,0.00,,,0.00,Wunderground v.1.15,2013-11-17 13:55:00,
2013-11-17 09:05:00,80.3,80.3,29.95,ENE,65,7.0,13.0,100,0.00,,,0.00,Wunderground v.1.15,2013-11-17 14:05:00,
2013-11-17 09:10:00,80.5,80.5,29.95,NE,55,7.0,10.0,100,0.00,,,0.00,Wunderground v.1.15,2013-11-17 14:10:00,
2013-11-17 09:20:00,80.9,80.9,29.96,East,97,4.0,4.0,100,0.00,,,0.00,Wunderground v.1.15,2013-11-17 14:20:00,
2013-11-17 09:25:00,80.7,80.7,29.96,East,88,5.0,8.0,100,0.00,,,0.00,Wunderground v.1.15,2013-11-17 14:25:00,
2013-11-17 09:35:00,80.7,80.7,29.97,ENE,59,6.0,7.0,100,0.00,,,0.00,Wunderground v.1.15,2013-11-17 14:35:00,
2013-11-17 09:45:00,80.9,80.9,29.97,East,86,6.0,7.0,100,0.00,,,0.00,Wunderground v.1.15,2013-11-17 14:45:00,
2013-11-17 09:55:00,81.1,81.1,29.97,NE,54,5.0,7.0,100,0.00,,,0.00,Wunderground v.1.15,2013-11-17 14:55:00,
2013-11-17 10:00:00,81.1,81.1,29.97,ESE,112,6.0,8.0,100,0.00,,,0.00,Wunderground v.1.15,2013-11-17 15:00:00,
2013-11-17 10:10:00,81.2,81.2,29.97,East,89,6.0,6.0,100,0.00,,,0.00,Wunderground v.1.15,2013-11-17 15:10:00,
2013-11-17 10:20:00,81.4,81.4,29.97,East,90,6.0,6.0,100,0.00,,,0.00,Wunderground v.1.15,2013-11-17 15:20:00,
2013-11-17 10:25:00,81.4,81.4,29.97,ESE,106,5.0,7.0,100,0.00,,,0.00,Wunderground v.1.15,2013-11-17 15:25:00,
2013-11-17 10:35:00,81.2,81.2,29.97,ENE,78,7.0,7.0,100,0.00,,,0.00,Wunderground v.1.15,2013-11-17 15:35:00,
2013-11-17 10:45:00,81.4,81.4,29.97,East,86,4.0,7.0,100,0.00,,,0.00,Wunderground v.1.15,2013-11-17 15:45:00,
2013-11-17 10:55:00,81.6,81.6,29.97,East,100,5.0,5.0,100,0.00,,,0.00,Wunderground v.1.15,2013-11-17 15:55:00,
2013-11-17 11:00:00,81.4,81.4,29.97,SE,126,4.0,7.0,100,0.00,,,0.00,Wunderground v.1.15,2013-11-17 16:00:00,
2013-11-17 11:10:00,81.4,81.4,29.97,East,95,6.0,6.0,100,0.00,,,0.00,Wunderground v.1.15,2013-11-17 16:10:00,
2013-11-17 11:20:00,81.8,81.8,29.97,ESE,104,6.0,6.0,100,0.00,,,0.00,Wunderground v.1.15,2013-11-17 16:20:00,
2013-11-17 11:25:00,81.6,81.6,29.97,East,99,6.0,10.0,100,0.00,,,0.00,Wunderground v.1.15,2013-11-17 16:25:00,
2013-11-17 11:35:00,81.4,81.4,29.96,SE,124,6.0,6.0,100,0.00,,,0.00,Wunderground v.1.15,2013-11-17 16:35:00,
2013-11-17 11:45:00,81.8,81.8,29.95,ESE,106,6.0,9.0,100,0.00,,,0.00,Wunderground v.1.15,2013-11-17 16:45:00,
2013-11-17 11:55:00,81.8,81.8,29.95,ESE,114,6.0,8.0,100,0.00,,,0.00,Wunderground v.1.15,2013-11-17 16:55:00,
2013-11-17 12:00:00,81.8,81.8,29.95,East,95,6.0,7.0,100,0.00,,,0.00,Wunderground v.1.15,2013-11-17 17:00:00,
2013-11-17 12:10:00,82.0,82.0,29.95,East,100,5.0,5.0,100,0.00,,,0.00,Wunderground v.1.15,2013-11-17 17:10:00,
2013-11-17 12:15:00,81.8,81.8,29.94,East,97,5.0,6.0,100,0.00,,,0.00,Wunderground v.1.15,2013-11-17 17:15:00,
2013-11-17 12:25:00,82.2,82.2,29.94,SE,130,5.0,10.0,100,0.00,,,0.00,Wunderground v.1.15,2013-11-17 17:25:00,
2013-11-17 12:30:00,82.0,82.0,29.93,ENE,61,5.0,7.0,100,0.00,,,0.00,Wunderground v.1.15,2013-11-17 17:30:00,
2013-11-17 12:40:00,81.1,81.1,29.93,East,80,5.0,5.0,100,0.00,,,0.00,Wunderground v.1.15,2013-11-17 17:40:00,
2013-11-17 12:45:00,81.4,81.4,29.93,ESE,104,4.0,5.0,100,0.00,,,0.00,Wunderground v.1.15,2013-11-17 17:45:00,
2013-11-17 12:55:00,81.6,81.6,29.93,ESE,114,5.0,7.0,100,0.00,,,0.00,Wunderground v.1.15,2013-11-17 17:55:00,
2013-11-17 13:00:00,81.4,81.4,29.92,ENE,73,5.0,5.0,100,0.00,,,0.00,Wunderground v.1.15,2013-11-17 18:00:00,
2013-11-17 13:10:00,81.8,81.8,29.92,ENE,66,5.0,7.0,100,0.00,,,0.00,Wunderground v.1.15,2013-11-17 18:10:00,
2013-11-17 13:15:00,81.6,81.6,29.92,ENE,62,4.0,7.0,100,0.00,,,0.00,Wunderground v.1.15,2013-11-17 18:15:00,
2013-11-17 13:25:00,81.6,81.6,29.92,ENE,78,4.0,6.0,100,0.00,,,0.00,Wunderground v.1.15,2013-11-17 18:25:00,
2013-11-17 13:30:00,82.0,82.0,29.91,ESE,107,5.0,6.0,100,0.00,,,0.00,Wunderground v.1.15,2013-11-17 18:30:00,
2013-11-17 13:35:00,81.8,81.8,29.91,ESE,109,5.0,6.0,100,0.00,,,0.00,Wunderground v.1.15,2013-11-17 18:35:00,
2013-11-17 13:45:00,82.0,82.0,29.91,ESE,119,4.0,7.0,100,0.00,,,0.00,Wunderground v.1.15,2013-11-17 18:45:00,
2013-11-17 13:50:00,82.2,82.2,29.91,ENE,76,4.0,4.0,100,0.00,,,0.00,Wunderground v.1.15,2013-11-17 18:50:00,
2013-11-17 14:00:00,81.4,81.4,29.91,ESE,104,5.0,5.0,100,0.00,,,0.00,Wunderground v.1.15,2013-11-17 19:00:00,
2013-11-17 14:10:00,80.7,80.7,29.91,ENE,75,4.0,6.0,100,0.00,,,0.00,Wunderground v.1.15,2013-11-17 19:10:00,
2013-11-17 14:20:00,81.4,81.4,29.91,ENE,68,4.0,6.0,100,0.00,,,0.00,Wunderground v.1.15,2013-11-17 19:20:00,
2013-11-17 14:30:00,81.8,81.8,29.90,ENE,68,3.0,5.0,100,0.00,,,0.00,Wunderground v.1.15,2013-11-17 19:30:00,
2013-11-17 14:35:00,81.6,81.6,29.90,ENE,75,4.0,5.0,100,0.00,,,0.00,Wunderground v.1.15,2013-11-17 19:35:00,
2013-11-17 14:45:00,81.8,81.8,29.90,East,99,3.0,5.0,100,0.00,,,0.00,Wunderground v.1.15,2013-11-17 19:45:00,
2013-11-17 14:50:00,81.6,81.6,29.90,ESE,113,4.0,4.0,100,0.00,,,0.00,Wunderground v.1.15,2013-11-17 19:50:00,
2013-11-17 15:00:00,81.8,81.8,29.89,ENE,72,4.0,6.0,100,0.00,,,0.00,Wunderground v.1.15,2013-11-17 20:00:00,
2013-11-17 15:05:00,81.6,81.6,29.89,East,89,4.0,6.0,100,0.00,,,0.00,Wunderground v.1.15,2013-11-17 20:05:00,
2013-11-17 15:15:00,81.2,81.2,29.89,ENE,59,5.0,8.0,100,0.00,,,0.00,Wunderground v.1.15,2013-11-17 20:15:00,
2013-11-17 15:20:00,81.4,81.4,29.89,ESE,109,5.0,6.0,100,0.00,,,0.00,Wunderground v.1.15,2013-11-17 20:20:00,
2013-11-17 15:30:00,81.2,81.2,29.89,East,80,5.0,5.0,100,0.00,,,0.00,Wunderground v.1.15,2013-11-17 20:30:00,
2013-11-17 15:35:00,81.1,81.1,29.89,ENE,61,6.0,6.0,100,0.00,,,0.00,Wunderground v.1.15,2013-11-17 20:35:00,
2013-11-17 15:45:00,81.2,81.2,29.89,ENE,68,4.0,7.0,100,0.00,,,0.00,Wunderground v.1.15,2013-11-17 20:45:00,
2013-11-17 15:55:00,81.1,81.1,29.89,ESE,107,4.0,4.0,100,0.00,,,0.00,Wunderground v.1.15,2013-11-17 20:55:00,
2013-11-17 16:00:00,81.1,81.1,29.89,East,95,4.0,4.0,100,0.00,,,0.00,Wunderground v.1.15,2013-11-17 21:00:00,
2013-11-17 16:10:00,80.9,80.9,29.89,ENE,75,6.0,6.0,100,0.00,,,0.00,Wunderground v.1.15,2013-11-17 21:10:00,
2013-11-17 16:20:00,80.9,80.9,29.89,ENE,68,4.0,8.0,100,0.00,,,0.00,Wunderground v.1.15,2013-11-17 21:20:00,
2013-11-17 16:25:00,80.5,80.5,29.89,East,95,4.0,8.0,100,0.00,,,0.00,Wunderground v.1.15,2013-11-17 21:25:00,
2013-11-17 16:35:00,80.3,80.3,29.89,East,90,5.0,5.0,100,0.00,,,0.00,Wunderground v.1.15,2013-11-17 21:35:00,
2013-11-17 16:45:00,80.1,80.1,29.89,ENE,75,5.0,6.0,100,0.00,,,0.00,Wunderground v.1.15,2013-11-17 21:45:00,
2013-11-17 16:50:00,80.1,80.1,29.89,ENE,73,4.0,7.0,100,0.00,,,0.00,Wunderground v.1.15,2013-11-17 21:50:00,
2013-11-17 17:00:00,79.9,79.9,29.90,ENE,76,5.0,6.0,100,0.00,,,0.00,Wunderground v.1.15,2013-11-17 22:00:00,
2013-11-17 17:05:00,79.8,79.8,29.90,ENE,73,5.0,6.0,100,0.00,,,0.00,Wunderground v.1.15,2013-11-17 22:05:00,
2013-11-17 17:15:00,79.6,79.6,29.90,NE,52,5.0,6.0,100,0.00,,,0.00,Wunderground v.1.15,2013-11-17 22:15:00,
2013-11-17 17:20:00,79.4,79.4,29.90,NE,51,5.0,5.0,100,0.00,,,0.00,Wunderground v.1.15,2013-11-17 22:20:00,
2013-11-17 17:30:00,79.4,79.4,29.90,NE,51,6.0,8.0,100,0.00,,,0.00,Wunderground v.1.15,2013-11-17 22:30:00,
2013-11-17 17:35:00,79.4,79.4,29.90,ENE,73,4.0,8.0,100,0.00,,,0.00,Wunderground v.1.15,2013-11-17 22:35:00,
2013-11-17 17:45:00,79.4,79.4,29.91,ENE,76,3.0,7.0,100,0.00,,,0.00,Wunderground v.1.15,2013-11-17 22:45:00,
2013-11-17 17:50:00,79.4,79.4,29.91,East,82,3.0,3.0,100,0.00,,,0.00,Wunderground v.1.15,2013-11-17 22:50:00,
2013-11-17 18:00:00,79.4,79.4,29.91,ENE,78,4.0,7.0,100,0.00,,,0.00,Wunderground v.1.15,2013-11-17 23:00:00,
2013-11-17 18:05:00,79.2,79.2,29.91,East,97,5.0,7.0,100,0.00,,,0.00,Wunderground v.1.15,2013-11-17 23:05:00,
2013-11-17 18:15:00,79.2,79.2,29.90,ENE,71,5.0,7.0,100,0.00,,,0.00,Wunderground v.1.15,2013-11-17 23:15:00,
2013-11-17 18:20:00,79.2,79.2,29.90,East,86,4.0,5.0,100,0.00,,,0.00,Wunderground v.1.15,2013-11-17 23:20:00,
2013-11-17 18:30:00,79.2,79.2,29.91,ENE,65,4.0,5.0,100,0.00,,,0.00,Wunderground v.1.15,2013-11-17 23:30:00,
2013-11-17 18:40:00,79.2,79.2,29.91,East,83,3.0,3.0,100,0.00,,,0.00,Wunderground v.1.15,2013-11-17 23:40:00,
2013-11-17 18:45:00,79.2,79.2,29.91,East,79,5.0,5.0,100,0.00,,,0.00,Wunderground v.1.15,2013-11-17 23:45:00,
2013-11-17 18:55:00,79.0,79.0,29.91,East,86,6.0,6.0,100,0.00,,,0.00,Wunderground v.1.15,2013-11-17 23:55:00,
2013-11-17 19:00:00,79.0,79.0,29.91,ENE,58,5.0,7.0,100,0.00,,,0.00,Wunderground v.1.15,2013-11-18 00:00:00,
2013-11-17 19:10:00,79.2,79.2,29.91,East,80,6.0,7.0,100,0.00,,,0.00,Wunderground v.1.15,2013-11-18 00:10:00,
2013-11-17 19:15:00,79.2,79.2,29.92,East,80,5.0,7.0,100,0.00,,,0.00,Wunderground v.1.15,2013-11-18 00:15:00,
2013-11-17 19:25:00,79.0,79.0,29.92,East,85,5.0,5.0,100,0.00,,,0.00,Wunderground v.1.15,2013-11-18 00:25:00,
2013-11-17 19:30:00,79.4,79.4,29.92,East,82,4.0,9.0,100,0.00,,,0.00,Wunderground v.1.15,2013-11-18 00:30:00,
2013-11-17 19:35:00,79.2,79.2,29.92,ENE,61,5.0,9.0,100,0.00,,,0.00,Wunderground v.1.15,2013-11-18 00:35:00,
2013-11-17 19:45:00,79.4,79.4,29.92,ENE,66,6.0,11.0,100,0.00,,,0.00,Wunderground v.1.15,2013-11-18 00:45:00,
2013-11-17 19:55:00,79.2,79.2,29.92,ENE,71,6.0,6.0,100,0.00,,,0.00,Wunderground v.1.15,2013-11-18 00:55:00,
2013-11-17 20:05:00,79.0,79.0,29.92,ENE,76,4.0,6.0,100,0.00,,,0.00,Wunderground v.1.15,2013-11-18 01:05:00,
2013-11-17 20:15:00,79.4,79.4,29.93,East,82,4.0,5.0,100,0.00,,,0.00,Wunderground v.1.15,2013-11-18 01:15:00,
2013-11-17 20:20:00,79.2,79.2,29.93,ENE,69,3.0,6.0,100,0.00,,,0.00,Wunderground v.1.15,2013-11-18 01:20:00,
2013-11-17 20:30:00,79.2,79.2,29.93,East,82,6.0,7.0,100,0.00,,,0.00,Wunderground v.1.15,2013-11-18 01:30:00,
2013-11-17 20:35:00,79.2,79.2,29.93,ENE,75,5.0,7.0,100,0.00,,,0.00,Wunderground v.1.15,2013-11-18 01:35:00,
2013-11-17 20:45:00,79.0,79.0,29.93,ENE,76,4.0,7.0,100,0.00,,,0.00,Wunderground v.1.15,2013-11-18 01:45:00,
2013-11-17 20:50:00,79.2,79.2,29.93,East,82,4.0,5.0,100,0.00,,,0.00,Wunderground v.1.15,2013-11-18 01:50:00,
2013-11-17 21:00:00,79.2,79.2,29.94,ENE,72,3.0,3.0,100,0.00,,,0.00,Wunderground v.1.15,2013-11-18 02:00:00,
2013-11-17 21:05:00,79.0,79.0,29.94,East,79,2.0,5.0,100,0.00,,,0.00,Wunderground v.1.15,2013-11-18 02:05:00,
2013-11-17 21:15:00,79.2,79.2,29.93,ENE,78,3.0,8.0,100,0.00,,,0.00,Wunderground v.1.15,2013-11-18 02:15:00,
2013-11-17 21:20:00,79.2,79.2,29.93,East,83,4.0,4.0,100,0.00,,,0.00,Wunderground v.1.15,2013-11-18 02:20:00,
2013-11-17 21:30:00,79.2,79.2,29.93,East,90,3.0,3.0,100,0.00,,,0.00,Wunderground v.1.15,2013-11-18 02:30:00,
2013-11-17 21:35:00,79.2,79.2,29.93,ENE,69,2.0,3.0,100,0.00,,,0.00,Wunderground v.1.15,2013-11-18 02:35:00,
2013-11-17 21:45:00,79.2,79.2,29.94,ENE,59,2.0,2.0,100,0.00,,,0.00,Wunderground v.1.15,2013-11-18 02:45:00,
2013-11-17 21:50:00,79.2,79.2,29.94,ENE,75,1.0,1.0,100,0.00,,,0.00,Wunderground v.1.15,2013-11-18 02:50:00,
2013-11-17 22:00:00,79.0,79.0,29.94,ESE,103,1.0,8.0,100,0.00,,,0.00,Wunderground v.1.15,2013-11-18 03:00:00,
2013-11-17 22:10:00,79.2,79.2,29.94,East,85,4.0,4.0,100,0.00,,,0.00,Wunderground v.1.15,2013-11-18 03:10:00,
2013-11-17 22:20:00,79.2,79.2,29.94,East,90,1.0,2.0,100,0.00,,,0.00,Wunderground v.1.15,2013-11-18 03:20:00,
2013-11-17 22:30:00,79.2,79.2,29.94,ENE,62,1.0,4.0,100,0.00,,,0.00,Wunderground v.1.15,2013-11-18 03:30:00,
2013-11-17 22:35:00,79.2,79.2,29.94,ENE,58,2.0,4.0,100,0.00,,,0.00,Wunderground v.1.15,2013-11-18 03:35:00,
2013-11-17 22:45:00,79.0,79.0,29.94,ESE,103,2.0,2.0,100,0.00,,,0.00,Wunderground v.1.15,2013-11-18 03:45:00,
2013-11-17 22:50:00,79.0,79.0,29.94,East,88,1.0,1.0,100,0.00,,,0.00,Wunderground v.1.15,2013-11-18 03:50:00,
2013-11-17 23:00:00,79.0,79.0,29.93,ENE,71,1.0,2.0,100,0.00,,,0.00,Wunderground v.1.15,2013-11-18 04:00:00,
2013-11-17 23:10:00,79.0,79.0,29.93,ENE,78,2.0,2.0,100,0.00,,,0.00,Wunderground v.1.15,2013-11-18 04:10:00,
2013-11-17 23:20:00,79.0,79.0,29.93,ENE,73,1.0,1.0,100,0.00,,,0.00,Wunderground v.1.15,2013-11-18 04:20:00,
2013-11-17 23:25:00,79.0,79.0,29.93,ENE,71,2.0,2.0,100,0.00,,,0.00,Wunderground v.1.15,2013-11-18 04:25:00,
2013-11-17 23:40:00,79.0,79.0,29.93,ENE,76,1.0,1.0,100,0.00,,,0.00,Wunderground v.1.15,2013-11-18 04:40:00,
2013-11-17 23:50:00,79.0,79.0,29.92,ENE,71,2.0,2.0,100,0.00,,,0.00,Wunderground v.1.15,2013-11-18 04:50:00,